Preview of NWS' New Version of Forecast
This preview is not operational and should not be used for support decisions.
Latest weather observations around

Alexander City, Thomas C Russell Field Airport (KALX)

Using International System of Units (Switch to English Units)
Date/ Time (CDT) Wind (kph) Vis. (km) Weather Sky Cond. Temp (°C) Rel. Humidity Wind Chill (°C) Heat Index (°C) Pressure Precip. (cm)
Air Dwpt 6 hour Altimeter (hPa) Sea level (hPa) 1 hr 3 hr 6 hr
Max Min
May 26 23:35 Calm 16.09 Partly Cloudy SCT021 22 22     100%   23 1013.9        
May 26 23:15 Calm 16.09 Mostly Cloudy BKN021 23 23     100%   24 1013.9        
May 26 22:55 Calm 16.09 Mostly Cloudy SCT021 BKN040 22 22     100%   23 1014.2        
May 26 22:35 Calm 16.09 Mostly Cloudy BKN040 23 23     100%   24 1014.2        
May 26 22:15 Calm 16.09 Mostly Cloudy BKN038 23 23     97%   24 1014.2        
May 26 21:55 Calm 16.09 Partly Cloudy SCT019 SCT038 23 23     99%   24 1014.2        
May 26 21:35 Calm 16.09 Clear CLR 23 23     100%   24 1013.6        
May 26 21:15 SSE 5 16.09 Clear CLR 23 23     98%   24 1013.2        
May 26 20:55 Calm 16.09 Clear CLR 24 23     98%   25 1013.2        
May 26 20:35 SSE 8 16.09 Clear CLR 24 23     96%   25 1012.9        
May 26 20:15 SE 5 16.09 Partly Cloudy SCT005 SCT013 SCT032 24 23     95%   25 1012.5        
May 26 19:55 SE 9 16.09 Light Rain SCT008 SCT032 BKN046 25 23     91%   26 1012.5        
May 26 19:35 SSE 11 16.09 Partly Cloudy SCT038 SCT044 26 25     94%   27 1012.2        
May 26 19:15 Calm 16.09 Clear CLR 27 24     88%   29 1011.9        
May 26 18:55 Calm 16.09 Clear CLR 27 24     82%   30 1011.9        
May 26 18:35 Calm 16.09 Clear CLR 27 23     80%   30 1011.9        
May 26 18:15 ESE 5 16.09 Clear CLR 27 23     77%   31 1011.5        
May 26 17:55 SSE 8 16.09 Clear CLR 28 23     73%   31 1011.9        
May 26 17:35 SE 5 16.09 Clear CLR 28 23     71%   32 1011.5        
May 26 17:15 ESE 8 16.09 Clear CLR 28 23     73%   31 1011.9        
May 26 16:55 SE 5 16.09 Clear CLR 28 23     73%   31 1011.9        
May 26 16:35 Calm 16.09 Clear CLR 28 22     71%   31 1011.9        
May 26 16:15 SE 8 16.09 Clear CLR 29 22     67%   32 1011.9        
May 26 15:55 SE 13 16.09 Clear CLR 29 22     68%   31 1011.9        
May 26 15:35 SE 8 16.09 Clear CLR 29 22     68%   32 1011.9        
May 26 15:15 ESE 8 16.09 Clear CLR 29 22     68%   31 1011.9        
May 26 14:55 SSE 8 16.09 Clear CLR 29 22     69%   32 1012.2        
May 26 14:35 SSE 5 16.09 Clear CLR 29 22     68%   32 1012.5        
May 26 14:15 SE 8 16.09 Partly Cloudy SCT034 28 22     70%   31 1012.9        
May 26 13:55 Calm 16.09 Partly Cloudy SCT034 27 22     74%   30 1013.2        
May 26 13:35 S 8 16.09 Partly Cloudy SCT036 28 23     75%   32 1013.6        
May 26 13:15 SSE 5 16.09 Partly Cloudy SCT031 28 23     76%   31 1013.9        
May 26 12:55 E 5 16.09 Partly Cloudy SCT029 27 23     76%   30 1014.2        
May 26 12:35 Calm 16.09 Partly Cloudy SCT027 SCT032 27 23     76%   30 1014.6        
May 26 12:15 Calm 16.09 Partly Cloudy SCT027 26 22     79%   28 1014.9        
May 26 11:55 Calm 16.09 Partly Cloudy SCT023 26 23     84%   27 1014.9        
May 26 11:35 E 5 16.09 Partly Cloudy SCT019 SCT025 26 23     84%   28 1015.2        
May 26 11:15 Calm 16.09 Mostly Cloudy BKN014 BKN020 25 23     86%   26 1015.2        
May 26 10:55 Calm 16.09 Mostly Cloudy BKN012 25 23     90%   26 1015.6        
May 26 10:35 Calm 16.09 Partly Cloudy SCT014 23 22     94%   24 1015.6        
May 26 10:15 Calm 16.09 Cloudy BKN012 OVC017 23 22     96%   24 1015.6        
May 26 09:55 Calm 16.09 Cloudy OVC012 23 23     98%   24 1015.6        
May 26 09:35 Calm 16.09 Cloudy BKN010 OVC015 23 23     99%   24 1015.9        
May 26 09:15 Calm 16.09 Mostly Cloudy SCT005 BKN010 22 22     99%   23 1015.6        
May 26 08:55 Calm 16.09 Cloudy OVC006 22 22     100%   23 1015.6        
May 26 08:35 Calm 16.09 Cloudy OVC006 21 21     100%   22 1015.6        
May 26 08:15 Calm 16.09 Cloudy OVC004 21 21     100%   22 1015.6        
May 26 07:55 Calm 16.09 Cloudy OVC004 21 21     100%     1015.2        
May 26 07:35 Calm 11.27 Cloudy SCT002 OVC006 20 20     100%     1015.2        
May 26 07:15 Calm 16.09 Cloudy BKN006 OVC010 20 20     100%     1014.9        
May 26 06:55 Calm 16.09 Cloudy OVC004 20 20     100%     1014.9        
May 26 06:35 Calm 16.09 Mostly Cloudy BKN004 19 19     100%     1014.6        
May 26 06:15 Calm 16.09 Clear CLR 19 19     100%     1013.9        
May 26 05:55 Calm 8.05 Fog/Mist CLR 19 19     100%     1013.6        
May 26 05:35 Calm 8.05 Fog/Mist CLR 19 19     100%     1013.6        
May 26 05:15 Calm 16.09 Clear CLR 20 20     100%     1013.6        
May 26 04:55 Calm 11.27 Clear CLR 20 20     100%     1013.6        
May 26 04:35 Calm 16.09 Clear CLR 20 20     100%     1013.6        
May 26 04:15 Calm 11.27 Clear CLR 20 20     100%     1013.6        
May 26 03:55 Calm 11.27 Partly Cloudy SCT001 20 20     100%     1013.6        
May 26 03:35 Calm 2.41 Fog/Mist BKN001 20 20     100%     1013.6        
May 26 03:15 Calm 8.05 Fog/Mist CLR 20 20     100%     1013.6        
May 26 02:55 Calm 8.05 Fog/Mist SCT001 20 20     100%     1013.6        
May 26 02:35 Calm 6.44 Fog/Mist BKN001 21 21     100%     1013.6        
May 26 02:15 Calm 11.27 Partly Cloudy SCT001 21 21     100%     1013.9        
May 26 01:55 Calm 11.27 Mostly Cloudy BKN001 21 21     100%   22 1014.2        
May 26 01:35 Calm 11.27 Cloudy BKN003 OVC012 21 21     100%   22 1014.2        
May 26 01:15 Calm 16.09 Cloudy SCT003 OVC012 21 21     100%   22 1014.6        
May 26 00:55 Calm 11.27 Cloudy OVC003 22 22     100%   22 1014.6        
May 26 00:35 Calm 11.27 Cloudy OVC003 21 21     100%   22 1014.6        
May 26 00:15 Calm 16.09 Cloudy OVC003 22 22     100%   22 1014.6        
May 25 23:55 ESE 8 11.27 Cloudy OVC003 22 22     100%   23 1014.9        
May 25 23:35 Calm 16.09 Cloudy OVC005 22 22     100%   23 1014.6        
May 25 23:15 ESE 5 11.27 Cloudy OVC005 22 22     100%   23 1014.6        
May 25 22:55 Calm 6.44 Fog/Mist BKN005 BKN008 OVC070 22 22     100%   23 1014.9        
May 25 22:35 Calm 8.05 Fog/Mist SCT013 BKN060 BKN070 22 22     100%   23 1015.2        
May 25 22:15 Calm 8.05 Thunderstorms and Fog/Mist SCT036 SCT046 SCT050 22 22     100%   23 1015.2        
May 25 21:55 Calm 11.27 Thunderstorms SCT036 BKN042 BKN048 22 22     100%   23 1015.2        
May 25 21:35 Calm 11.27 Thunderstorms SCT044 SCT050 BKN090 22 22     100%   23 1015.2        
May 25 21:15 Calm 11.27 Clear CLR 22 22     100%   23 1015.2        
May 25 20:55 Calm 11.27 Clear CLR 22 22     100%   23 1015.2        
May 25 20:35 Calm 8.05 Fog/Mist CLR 22 22     100%   23 1014.9        
May 25 20:15 Calm 11.27 Clear CLR 23 23     100%   23 1014.9        
May 25 19:55 Calm 11.27 Clear CLR 23 23     100%   24 1014.9        
May 25 19:35 Calm 16.09 Clear CLR 23 23     100%   24 1014.6        
May 25 19:15 Calm 16.09 Clear CLR 23 23     100%   24 1014.2        
May 25 18:55 Calm 16.09 Clear CLR 23 23     100%   24 1014.2       0
May 25 18:35 Calm 16.09 Partly Cloudy SCT004 SCT100 23 23     100%   24 1013.9        
May 25 18:15 Calm 16.09 Clear CLR 23 23     100%   24 1013.9        
May 25 17:55 Calm 16.09 Partly Cloudy SCT004 23 23     100%   24 1013.6        
May 25 17:35 Calm 16.09 Light Drizzle SCT004 23 23     100%   24 1013.9        
May 25 17:15 Calm 16.09 Light Rain SCT004 23 23     100%   24 1013.9        
May 25 16:55 Calm 16.09 Light Rain SCT004 22 22     100%   23 1014.2   0    
May 25 16:35 Calm 16.09 Light Rain SCT004 22 22     100%   23 1014.2   0    
May 25 16:15 Calm 16.09 Light Rain BKN004 BKN010 22 22     100%   23 1014.6   0    
May 25 15:55 Calm 11.27 Light Rain OVC008 22 22     100%   23 1014.6   0 0  
May 25 15:35 SW 8 11.27 Rain BKN008 OVC013 22 22     100%   23 1015.2   0    
May 25 15:15 W 5 8.05 Rain SCT005 OVC011 22 22     100%   23 1015.6   0    
May 25 14:55 SW 5 8.05 Rain SCT005 OVC013 23 23     100%   24 1015.6   0    
May 25 14:35 SW 11 16.09 Cloudy OVC007 23 23     100%   25 1015.6        
May 25 14:15 Calm 16.09 Light Rain SCT003 BKN007 BKN011 25 24     94%   26 1015.6        
May 25 13:55 Calm 16.09 Thunderstorms CLR 26 23     83%   28 1015.9        
May 25 13:35 E 5 16.09 Partly Cloudy SCT035 SCT041 SCT046 27 23     77%   29 1016.3        
May 25 13:15 E 13 16.09 Partly Cloudy SCT034 SCT043 SCT055 28 22     72%   30 1016.3        
May 25 12:55 E 11 16.09 Thunderstorms SCT027 SCT033 SCT049 28 23     73%   31 1016.3        
May 25 12:35 NE 9 16.09 Partly Cloudy SCT022 SCT028 SCT036 27 23     78%   30 1016.6        
May 25 12:15 NE 8 16.09 Mostly Cloudy SCT022 SCT028 BKN036 27 23     83%   29 1016.6        
May 25 11:55 Calm 16.09 Partly Cloudy SCT020 SCT029 SCT033 27 24     84%   29 1016.9        
May 25 11:35 E 8 16.09 Partly Cloudy SCT017 SCT029 26 23     83%   29 1017.3        
May 25 11:15 Calm 16.09 Mostly Cloudy BKN027 25 23     88%   26 1017.6        
May 25 10:55 Calm 16.09 Mostly Cloudy BKN023 25 23     89%   26 1018        
May 25 10:35 ESE 5 16.09 Mostly Cloudy BKN018 24 23     92%   25 1018        
May 25 10:15 ESE 5 16.09 Cloudy SCT012 OVC018 24 23     95%   25 1018        
May 25 09:55 SE 8 16.09 Cloudy SCT012 OVC018 24 23     96%   25 1018        
May 25 09:35 Calm 16.09 Cloudy SCT009 OVC018 24 23     97%   25 1018        
May 25 09:15 NE 8 16.09 Mostly Cloudy BKN009 BKN014 BKN022 24 23     97%   24 1018.3        
Notice The following observation data may not be complete
May 25 08:55     Clear            %              
May 25 08:35 Calm 16.09 Cloudy OVC005 23 23     100%   24 1018.3        
May 25 08:15 E 5 16.09 Cloudy OVC005 22 22     100%   23 1018.3        
May 25 07:55 Calm 16.09 Cloudy OVC003 22 22     100%   23 1018.3        
May 25 07:35 E 5 11.27 Cloudy OVC003 22 22     100%   23 1018.3        
May 25 07:15 Calm 16.09 Cloudy OVC003 22 22     100%   23 1018        
May 25 06:55 Calm 16.09 Cloudy BKN003 OVC013 22 22     100%   22 1018        
May 25 06:35 Calm 11.27 Cloudy SCT003 OVC011 21 21     100%   22 1017.6        
May 25 06:15 Calm 11.27 Cloudy SCT003 OVC009 21 21     100%   22 1017.6        
May 25 05:55 Calm 11.27 Cloudy BKN003 OVC007 21 21     100%   22 1017.3        
May 25 05:35 Calm 16.09 Cloudy OVC005 21 21     100%     1017.3        
May 25 05:15 Calm 16.09 Cloudy OVC005 21 21     100%     1017.3        
May 25 04:55 Calm 16.09 Cloudy BKN005 OVC070 21 21     100%     1016.9        
May 25 04:35 Calm 16.09 Mostly Cloudy SCT005 BKN060 BKN070 21 21     100%     1016.6        
May 25 04:15 Calm 16.09 Mostly Cloudy SCT043 BKN050 21 21     100%     1016.9        
May 25 03:55 Calm 16.09 Cloudy OVC047 21 21     100%     1016.9        
May 25 03:35 Calm 16.09 Mostly Cloudy BKN045 21 21     100%     1016.9        
May 25 03:15 Calm 16.09 Mostly Cloudy SCT022 BKN028 21 21     100%     1016.9        
May 25 02:55 Calm 16.09 Mostly Cloudy BKN021 21 21     100%     1016.9        
May 25 02:35 Calm 16.09 Clear CLR 21 21     100%   22 1016.9        
May 25 02:15 Calm 16.09 Clear CLR 21 21     100%   22 1017.3        
May 25 01:55 NNE 5 16.09 Clear CLR 21 21     100%   22 1017.3        
May 25 01:35 NNE 5 16.09 Clear CLR 21 21     100%   22 1017.3        
May 25 01:15 Calm 16.09 Partly Cloudy SCT041 SCT048 22 22     100%   22 1017.6        
May 25 00:55 N 5 16.09 Partly Cloudy SCT041 SCT050 21 21     100%   22 1018        
May 25 00:35 Calm 16.09 Mostly Cloudy BKN039 BKN048 BKN060 21 21     100%   22 1018.3        
May 25 00:15 Calm 16.09 Partly Cloudy SCT037 SCT048 SCT060 21 21     100%   22 1018.3        
May 24 23:55 Calm 16.09 Mostly Cloudy BKN037 BKN050 22 22     100%   23 1018.6        
May 24 23:35 Calm 16.09 Mostly Cloudy BKN035 BKN060 22 22     100%   22 1019        
May 24 23:15 Calm 16.09 Clear CLR 21 21     100%   22 1019        
May 24 22:55 Calm 16.09 Partly Cloudy SCT046 SCT060 SCT070 22 22     100%   23 1019        
May 24 22:35 Calm 16.09 Mostly Cloudy SCT020 BKN046 BKN060 22 22     100%   23 1019.3        
May 24 22:15 Calm 16.09 Partly Cloudy SCT048 22 22     100%   23 1019.7        
May 24 21:55 Calm 16.09 Clear CLR 22 22     100%   23 1019        
May 24 21:35 Calm 16.09 Clear CLR 22 22     100%   23 1018.6        
May 24 21:15 Calm 16.09 Partly Cloudy SCT002 22 22     100%   23 1018.3        
May 24 20:55 SE 8 16.09 Clear CLR 22 22     100%   23 1018        
May 24 20:35 Calm 16.09 Clear CLR 22 22     100%   23 1017.6        
May 24 20:15 Calm 16.09 Clear CLR 22 22     100%   23 1017.3        
May 24 19:55 Calm 16.09 Clear CLR 23 23     98%   24 1017.3        
May 24 19:35 Calm 16.09 Clear CLR 24 23     97%   24 1017.3        
May 24 19:15 Calm 16.09 Clear CLR 24 23     97%   24 1017.3        
May 24 18:55 Calm 16.09 Clear CLR 24 23     95%   25 1016.9        
May 24 18:35 Calm 16.09 Clear CLR 24 22     92%   25 1016.9        
May 24 18:15 Calm 16.09 Clear CLR 24 23     92%   25 1016.9        
May 24 17:55 Calm 16.09 Clear CLR 24 23     92%   25 1017.3        
May 24 17:35 Calm 16.09 Clear CLR 24 23     95%   25 1017.3        
May 24 17:15 W 8 16.09 Clear CLR 24 23     93%   25 1017.6        
May 24 16:55 W 9 16.09 Clear CLR 24 23     93%   25 1018        
May 24 16:35 Calm 16.09 Clear CLR 25 23     90%   25 1018        
May 24 16:15 Calm 16.09 Clear CLR 25 23     88%   26 1017.6        
May 24 15:55 WSW 8 16.09 Clear CLR 25 22     84%   26 1017.6        
May 24 15:35 Calm 16.09 Clear CLR 25 22     83%   25 1017.6        
May 24 15:15 Calm 16.09 Thunderstorms SCT027 SCT034 SCT040 25 21     82%   25 1018        
May 24 14:55 Calm 16.09 Thunderstorms SCT027 SCT039 24 22     91%   25 1018.6        
May 24 14:35 SW 5 16.09 Clear CLR 24 23     94%   25 1018.3        
May 24 14:15 SW 9 16.09 Clear CLR 25 23     89%   26 1018.3        
May 24 13:55 Calm 16.09 Clear CLR 25 22     85%   26 1018.3        
May 24 13:35 W 5 16.09 Clear CLR 25 22     85%   26 1018.3        
May 24 13:15 Calm 16.09 Partly Cloudy SCT027 SCT032 SCT038 25 22     87%   25 1018.6        
May 24 12:55 W 13 16.09 Thunderstorms SCT029 BKN036 BKN043 25 24     91%   26 1019.3        
May 24 12:35 WNW 11 16.09 Thunderstorms SCT023 BKN031 BKN038 25 23     87%   26 1019.3        
May 24 12:15 ESE 9 16.09 Mostly Cloudy SCT023 BKN033 28 24     81%   32 1019.3        
May 24 11:55 SW 5 16.09 Mostly Cloudy SCT028 BKN035 27 24     86%   30 1019.3        
May 24 11:35 WSW 9 16.09 Cloudy BKN028 OVC033 26 23     84%   27 1020        
May 24 11:15 S 13 16.09 Partly Cloudy SCT028 SCT033 27 23     79%   29 1019.7        
May 24 10:55 ESE 5 16.09 Thunderstorms SCT030 SCT038 SCT045 28 24     82%   31 1020        
May 24 10:35 NE 8 16.09 Mostly Cloudy SCT030 BKN046 29 24     76%   33 1019.7        
May 24 10:15 N 5 16.09 Partly Cloudy SCT026 28 24     78%   32 1019.7        
May 24 09:55 WSW 5 16.09 Partly Cloudy SCT026 28 24     80%   32 1019.7        
May 24 09:35 Calm 16.09 Clear CLR 27 24     84%   30 1019.7        
May 24 09:15 NNE 5 16.09 Clear CLR 27 24     83%   30 1019.7        
May 24 08:55 Calm 16.09 Clear CLR 26 24     89%   28 1019.7        
May 24 08:35 Calm 16.09 Clear CLR 24 23     93%   25 1019.7        
May 24 08:15 Calm 16.09 Clear CLR 23 23     99%   24 1019.7        
May 24 07:55 Calm 16.09 Clear CLR 23 23     100%   24 1019.7        
May 24 07:30 Calm 16.09 Clear CLR 22 22     100%   23 1019.3        
May 24 07:15 Calm 16.09 Clear CLR 22 22     100%   23 1019        
May 24 06:55 Calm 6.44 Fog/Mist SCT002 21 21     100%     1019        
May 24 06:35 Calm 4.83 Fog/Mist SCT002 20 20     100%     1019        
May 24 06:10 Calm 4.02 Fog/Mist OVC002 20 20     100%     1018.6        
May 24 05:55 Calm 0.8 Fog OVC002 20 20     100%     1018.6        
May 24 05:30 Calm 1.21 Fog/Mist OVC002 20 20     100%     1018.3        
May 24 05:15 Calm 1.21 Fog/Mist OVC002 20 20     100%     1018        
May 24 04:55 Calm 2.82 Fog/Mist OVC002 20 20     100%     1018        
May 24 04:35 Calm 0.8 Fog OVC002 20 20     100%     1017.6        
May 24 04:15 Calm 0.8 Thunderstorms and Fog OVC002 20 20     100%     1017.6        
May 24 03:55 Calm 11.27 Cloudy OVC002 20 20     100%     1017.6        
May 24 03:35 Calm 8.05 Fog/Mist OVC002 21 21     100%     1018        
May 24 03:15 Calm 11.27 Mostly Cloudy BKN002 BKN080 21 21     100%     1017.6        
May 24 02:55 Calm 11.27 Partly Cloudy SCT002 21 21     100%     1017.6        
May 24 02:35 Calm 11.27 Clear CLR 21 21     100%   22 1017.6        
May 24 02:15 Calm 11.27 Partly Cloudy SCT080 21 21     100%   22 1018        
May 24 01:55 Calm 16.09 Partly Cloudy SCT080 21 21     100%   22 1018        
May 24 01:35 Calm 16.09 Partly Cloudy SCT080 21 21     100%   22 1018        
May 24 01:15 Calm 16.09 Clear CLR 21 21     100%     1018.3        
May 24 00:55 Calm 16.09 Clear CLR 22 22     100%   23 1018.3        
May 24 00:35 Calm 16.09 Clear CLR 22 22     100%   23 1018.3        
May 24 00:15 Calm 16.09 Clear CLR 22 22     100%   23 1018.3        
May 23 23:55 Calm 16.09 Clear CLR 22 22     100%   23 1018.6        
May 23 23:35 Calm 16.09 Clear CLR 22 22     100%   23 1019        
May 23 23:15 Calm 16.09 Clear CLR 22 22     100%   23 1019        
May 23 22:55 Calm 16.09 Partly Cloudy SCT070 23 23     100%   24 1019.3        
May 23 22:35 Calm 16.09 Mostly Cloudy SCT055 SCT070 BKN075 23 23     100%   24 1019.3        
May 23 22:15 Calm 16.09 Mostly Cloudy BKN055 BKN070 23 23     100%   24 1019.3        
May 23 21:55 Calm 16.09 Partly Cloudy SCT055 23 23     100%   24 1019.3        
May 23 21:35 Calm 16.09 Clear CLR 24 24     100%   25 1019        
May 23 21:15 Calm 16.09 Clear CLR 24 24     100%   25 1018.6        
May 23 20:50 Calm 16.09 Clear CLR 24 24     100%   25 1018.3        
May 23 20:35 Calm 16.09 Clear CLR 24 24     100%   26 1018        
May 23 20:10 Calm 16.09 Clear CLR 25 25     99%   26 1017.6        
May 23 19:55 Calm 16.09 Clear CLR 25 25     99%   26 1017.6        
May 23 19:35 Calm 16.09 Clear CLR 26 25     93%   28 1017.3        
May 23 19:15 Calm 16.09 Clear CLR 27 25     91%   31 1017.3        
May 23 18:55 Calm 16.09 Clear CLR 27 25     88%   31 1016.9        
May 15 05:15 Calm 16.09 Clear CLR 20 20     100%     1015.6        
May 15 01:15 Calm 16.09 Clear CLR 21 21     100%     1014.9        
May 14 23:35 Calm 16.09 Clear CLR 21 21     100%     1015.2        
May 14 18:15 Calm 16.09 Clear CLR 29 23     70%   33 1014.6        
May 14 15:15 ENE 9 16.09 Clear CLR 32 20     50%   34 1015.2        
May 14 11:15 NE 8 16.09 Clear CLR 30 21     58%   32 1017.6        
May 14 07:35 NNE 5 16.09 Clear CLR 20 18     89%     1017.6        
May 13 14:55 NW 13 16.09 Clear CLR 32 17     42%   32 1018.3        
May 13 07:55 Calm 16.09 Clear CLR 22 18     78%   22 1021        
May 12 21:15 Calm 16.09 Clear CLR 20 19     91%     1019.7        
May 12 20:55 Calm 16.09 Clear CLR 21 19     89%     1019.7        
May 12 19:35 Calm 16.09 Clear CLR 25        %     1019        
May 12 17:55 WSW 9 16.09 Clear CLR 30 17     46%   31 1018.6        
May 12 17:15 W 11 16.09 Clear CLR 31 17     44%   31 1019        
May 12 15:55 SSW 5 16.09 Clear   31 17     44%   32 1019.7        
May 12 15:35 WSW 13 16.09 Clear CLR 32 18     44%   32 1019.7        
May 12 02:55 Calm 16.09 Clear CLR 16 16     100%     1019.7        
May 11 21:15 Calm 16.09 Clear CLR 21 19     88%     1019.7        
May 11 17:15 SW 8 16.09 Clear CLR 30 17     47%   31 1018.6        
May 11 13:35 W 5 16.09 Clear CLR 29 18     51%   30 1020.3        
May 11 10:55 WSW 5 16.09 Clear CLR 27 19     62%   29 1021.3        
Jun 12 07:15 Calm 16.09 Mostly Cloudy BKN004 23 22     94%   24 1022        
Jun 12 05:35 Calm 16.09 Mostly Cloudy BKN011 21 20     96%     1021.3        
Jun 12 01:15 Calm 16.09 Partly Cloudy SCT033 22 22     96%   23 1021        
Jun 11 17:55 ESE 5 16.09 Clear CLR 29 21     60%   31 1019        
Jun 11 16:55 SE 9 16.09 Clear   30 20     54%   33 1019.7        
Jun 11 16:15 SE 8 16.09 Clear CLR 30 20     54%   33 1020.3        
Jun 11 14:55 SE 9 16.09 Clear   30 20     54%   32 1020.7        
Notice The following observation data may not be complete
Jun 11 05:15   16.09 Clear CLR          %              
Jun 10 10:15 SE 5 16.09 Clear CLR 27 17     53%   28 1019.7        
Notice The following observation data may not be complete
Jun 09 16:15   16.09 Partly Cloudy SCT055 SCT065          %              
Jun 08 17:35 NNW 5 16.09 Clear CLR 26 14     46%   26 1011.2        
Notice The following observation data may not be complete
Jun 08 12:15   16.09 Clear CLR          %              
Notice The following observation data may not be complete
Jun 08 11:15   16.09 Partly Cloudy SCT035          %              
Jun 08 09:15 SE 5 16.09 Partly Cloudy SCT041 21 15     71%     1013.6        
Notice The following observation data may not be complete
Jun 08 07:55   16.09 Partly Cloudy SCT040 SCT090          %              
Jun 08 07:35 Calm 16.09 Clear CLR 18 15     83%     1013.2        
Jun 07 20:55 N 8 16.09 Clear CLR 22 15     63%   22 1010.8        
Jun 07 15:15 E 11 16.09 Partly Cloudy SCT032 SCT060 26 19     68%   26 1008.8        
Jun 07 10:55 E 9 16.09 Mostly Cloudy BKN024 BKN031 24 19     73%   25 1009.5        
Jun 06 03:35 Calm 8.05 Fog/Mist OVC004 22 21     99%   23 1008.8        
Jun 06 00:55 Calm 11.27 Cloudy OVC002 22 22     98%   23 1010.2       0
Notice The following observation data may not be complete
Jun 05 18:35   16.09 Partly Cloudy SCT012          %              
Jun 05 16:35 WSW 8 16.09 Partly Cloudy SCT018 25 21     82%   25 1010.2        
Jun 05 15:15 S 15 16.09 Partly Cloudy SCT040 26 21     75%   26 1009.5